Weather History for Erwin, NC

Change the Weather History Date:

Thursday, July 18, 2013

  Actual Average Record
Temperature  
Mean Temperature 84 °F -  
Max Temperature 92 °F 89 °F 101 °F (1986)
Min Temperature 76 °F 67 °F 58 °F (1973)
Cooling Degree Days 19    
Growing Degree Days 34 (Base 50)    
Moisture  
Dew Point 75 °F    
Average Humidity 79    
Maximum Humidity 100    
Minimum Humidity 45    
Precipitation  
Precipitation 0.15 in - - ()
Sea Level Pressure  
Sea Level Pressure 30.12 in    
Wind  
Wind Speed 2 mph (South)    
Max Wind Speed 9 mph    
Max Gust Speed 16 mph    
Visibility 9 miles    
Events Rain    
Averages and records for this station are not official NWS values.
T = Trace of Precipitation, MM = Missing Value Source: NWS Daily Summary

Daily Weather History Graph

Daily Weather History Graph

Search for Another Location

Airport:

Trip Planner

Search our weather history database for the weather conditions in past years. The results will help you decide how hot, cold, wet, or windy it might be!

Date:

Astronomy

Jul. 18, 2013 Rise Set
Actual Time 6:13 AM EDT 8:28 PM EDT
Civil Twilight 5:44 AM EDT 8:57 PM EDT
Nautical Twilight 5:09 AM EDT 9:32 PM EDT
Astronomical Twilight 4:30 AM EDT 10:11 PM EDT
Moon 4:24 PM EDT (7/18) 2:00 AM EDT (7/18)
Length of Visible Light 15h 12m
Length of Day
14h 15m
Waxing Gibbous, 77% of the Moon is Illuminated
Jul 18
Waxing Gibbous
Jul 22
Full
Jul 29
Last Quarter
Aug 6
New
Aug 14
First Quarter

Hourly Weather History & Observations

Time (EDT) Temp. Heat Index Dew Point Humidity Pressure Visibility Wind Dir Wind Speed Gust Speed Precip Events Conditions
12:15 AM 79.2 °F - 73.2 °F 82% 30.15 in 10.0 mi SSE 3.5 mph - N/A   Clear
12:35 AM 78.6 °F - 73.4 °F 84% 30.15 in 10.0 mi SSE 3.5 mph - N/A   Clear
12:55 AM 77.9 °F - 75.2 °F 91% 30.15 in 10.0 mi South 3.5 mph - N/A   Clear
1:15 AM 77.5 °F - 75.2 °F 92% 30.15 in 10.0 mi South 3.5 mph - N/A   Clear
1:35 AM 77.9 °F - 75.2 °F 91% 30.15 in 10.0 mi SSW 4.6 mph - N/A   Clear
1:55 AM 77.5 °F - 75.2 °F 92% 30.14 in 10.0 mi Calm Calm - N/A   Clear
2:15 AM 77.4 °F - 75.2 °F 93% 30.13 in 10.0 mi Calm Calm - N/A   Mostly Cloudy
2:35 AM 77.2 °F - 75.4 °F 94% 30.14 in 10.0 mi Calm Calm - N/A   Overcast
2:55 AM 77.2 °F - 75.6 °F 95% 30.14 in 10.0 mi Calm Calm - N/A   Overcast
3:15 AM 77.0 °F - 75.6 °F 95% 30.13 in 7.0 mi Calm Calm - N/A   Overcast
3:35 AM 77.4 °F - 75.7 °F 95% 30.12 in 7.0 mi Calm Calm - N/A   Overcast
3:55 AM 77.4 °F - 75.9 °F 95% 30.12 in 7.0 mi Calm Calm - N/A   Overcast
4:15 AM 77.4 °F - 75.9 °F 95% 30.12 in 7.0 mi Calm Calm - N/A   Overcast
4:35 AM 77.5 °F - 76.1 °F 95% 30.12 in 7.0 mi Calm Calm - N/A   Overcast
4:55 AM 77.0 °F - 75.7 °F 96% 30.12 in 7.0 mi Calm Calm - N/A   Mostly Cloudy
5:15 AM 77.0 °F - 75.7 °F 96% 30.12 in 7.0 mi Calm Calm - N/A   Mostly Cloudy
5:35 AM 76.8 °F - 75.7 °F 96% 30.12 in 7.0 mi Calm Calm - N/A   Scattered Clouds
5:55 AM 76.8 °F - 75.6 °F 96% 30.12 in 7.0 mi Calm Calm - N/A   Mostly Cloudy
6:15 AM 76.5 °F - 75.9 °F 98% 30.14 in 5.0 mi ENE 4.6 mph - N/A   Overcast
6:35 AM 77.2 °F - 76.1 °F 96% 30.14 in 5.0 mi Calm Calm - 0.03 in Rain Heavy Rain
6:55 AM 76.5 °F - 76.1 °F 99% 30.14 in 3.0 mi WSW 3.5 mph - 0.06 in   Overcast
7:15 AM 77.0 °F - 77.0 °F 100% 30.14 in 2.5 mi South 4.6 mph - N/A   Overcast
7:35 AM 77.2 °F - 77.0 °F 99% 30.14 in 3.0 mi Calm Calm - N/A   Overcast
7:55 AM 77.7 °F - 77.2 °F 98% 30.14 in 3.0 mi Calm Calm - N/A   Mostly Cloudy
8:15 AM 78.6 °F - 77.7 °F 97% 30.14 in 4.0 mi Calm Calm - N/A   Overcast
8:35 AM 79.9 °F - 76.8 °F 90% 30.14 in 7.0 mi Calm Calm - N/A   Scattered Clouds
8:55 AM 80.8 °F 87.1 °F 76.3 °F 86% 30.15 in 10.0 mi Calm Calm - N/A   Scattered Clouds
9:15 AM 81.9 °F 88.9 °F 75.9 °F 82% 30.14 in 10.0 mi Calm Calm - N/A   Clear
9:35 AM 82.9 °F 90.2 °F 75.0 °F 77% 30.14 in 10.0 mi Calm Calm - N/A   Clear
9:55 AM 84.2 °F 91.9 °F 74.8 °F 73% 30.14 in 10.0 mi SSW 3.5 mph - N/A   Clear
10:15 AM 85.1 °F 92.9 °F 74.1 °F 70% 30.14 in 10.0 mi SW 3.5 mph - N/A   Clear
10:35 AM 86.0 °F 93.0 °F 73.0 °F 65% 30.14 in 10.0 mi Calm Calm - N/A   Clear
10:55 AM 86.9 °F 94.5 °F 73.6 °F 64% 30.14 in 10.0 mi SSW 3.5 mph - N/A   Clear
11:15 AM 87.4 °F 94.4 °F 72.7 °F 61% 30.14 in 10.0 mi Calm Calm - N/A   Clear
11:35 AM 88.0 °F 95.1 °F 72.7 °F 60% 30.14 in 10.0 mi Calm Calm - N/A   Clear
11:55 AM 88.9 °F 95.6 °F 72.0 °F 57% 30.14 in 10.0 mi South 3.5 mph - N/A   Clear
12:15 PM 89.6 °F 95.2 °F 70.2 °F 53% 30.14 in 10.0 mi SE 3.5 mph - N/A   Clear
12:35 PM 88.7 °F 95.7 °F 72.0 °F 58% 30.14 in 10.0 mi West 3.5 mph - N/A   Clear
12:55 PM 90.1 °F 95.3 °F 70.0 °F 51% 30.14 in 10.0 mi South 4.6 mph - N/A   Clear
1:15 PM 90.7 °F 96.4 °F 70.5 °F 51% 30.13 in 10.0 mi SSE 3.5 mph - N/A   Clear
1:35 PM 91.0 °F 96.6 °F 70.2 °F 50% 30.12 in 10.0 mi Calm Calm - N/A   Clear
1:55 PM 91.2 °F 97.5 °F 70.9 °F 51% 30.12 in 10.0 mi SSE 3.5 mph - N/A   Scattered Clouds
2:15 PM 91.4 °F 97.8 °F 70.9 °F 51% 30.11 in 10.0 mi ESE 3.5 mph - N/A   Scattered Clouds
2:35 PM 92.3 °F 98.1 °F 69.8 °F 48% 30.10 in 10.0 mi South 3.5 mph - N/A   Scattered Clouds
2:55 PM 91.8 °F 97.0 °F 69.8 °F 48% 30.10 in 10.0 mi SE 5.8 mph - N/A   Clear
3:15 PM 91.9 °F 96.4 °F 68.2 °F 46% 30.09 in 10.0 mi Calm Calm - N/A   Clear
3:35 PM 92.5 °F 96.9 °F 68.0 °F 45% 30.08 in 10.0 mi Calm Calm - N/A   Clear
3:55 PM 92.7 °F 97.2 °F 68.5 °F 45% 30.08 in 10.0 mi Calm Calm - N/A   Clear
4:15 PM 92.5 °F 99.0 °F 70.9 °F 49% 30.08 in 10.0 mi SW 5.8 mph - N/A   Clear
4:35 PM 91.9 °F 99.5 °F 71.8 °F 52% 30.08 in 10.0 mi SW 4.6 mph - N/A   Clear
4:55 PM 88.0 °F 95.6 °F 72.9 °F 61% 30.07 in 10.0 mi SW 9.2 mph - N/A   Clear
5:15 PM 88.2 °F 95.0 °F 72.1 °F 59% 30.07 in 10.0 mi WSW 6.9 mph 16.1 mph N/A   Clear
6:15 PM 85.8 °F 91.1 °F 70.9 °F 61% 30.07 in 2.5 mi SE 4.6 mph - 0.05 in Rain Heavy Rain
6:35 PM 82.0 °F 91.0 °F 78.3 °F 88% 30.07 in 7.0 mi Calm Calm - 0.09 in Rain Light Rain
6:55 PM 81.7 °F 91.9 °F 80.1 °F 95% 30.06 in 5.0 mi Calm Calm - 0.09 in   Overcast
7:15 PM 82.0 °F 92.8 °F 80.2 °F 94% 30.07 in 5.0 mi Calm Calm - N/A   Mostly Cloudy
7:35 PM 82.4 °F 92.7 °F 79.3 °F 90% 30.07 in 7.0 mi Calm Calm - N/A   Overcast
7:55 PM 82.6 °F 91.1 °F 76.8 °F 83% 30.08 in 10.0 mi Calm Calm - N/A   Overcast
8:15 PM 82.9 °F 90.5 °F 75.4 °F 78% 30.08 in 10.0 mi Calm Calm - N/A   Mostly Cloudy
8:35 PM 82.0 °F 89.4 °F 76.1 °F 82% 30.08 in 10.0 mi Calm Calm - N/A   Scattered Clouds
8:55 PM 82.0 °F 88.9 °F 75.4 °F 80% 30.09 in 10.0 mi Calm Calm - N/A   Scattered Clouds
9:15 PM 81.5 °F 88.5 °F 76.1 °F 84% 30.09 in 10.0 mi Calm Calm - N/A   Scattered Clouds
9:35 PM 81.1 °F 89.6 °F 78.8 °F 93% 30.10 in 10.0 mi Calm Calm - N/A   Mostly Cloudy
9:55 PM 81.0 °F 89.0 °F 78.6 °F 93% 30.10 in 10.0 mi Calm Calm - N/A   Overcast
10:15 PM 81.0 °F 89.0 °F 78.6 °F 93% 30.11 in 10.0 mi Calm Calm - N/A   Mostly Cloudy
10:35 PM 80.8 °F 88.0 °F 77.9 °F 91% 30.11 in 10.0 mi Calm Calm - N/A   Mostly Cloudy
10:55 PM 80.2 °F 86.6 °F 77.7 °F 92% 30.12 in 10.0 mi South 3.5 mph - N/A   Mostly Cloudy
11:15 PM 80.6 °F 87.3 °F 77.5 °F 90% 30.12 in 10.0 mi South 3.5 mph - N/A   Mostly Cloudy
11:35 PM 80.6 °F 86.2 °F 75.4 °F 84% 30.12 in 10.0 mi South 5.8 mph - N/A   Scattered Clouds
11:55 PM 80.4 °F 85.8 °F 75.0 °F 84% 30.12 in 10.0 mi South 4.6 mph - N/A   Mostly Cloudy